WS Maaseik 1 Meer informatie WS Maaseik 1


WS Maaseik 2 Meer informatie WS Maaseik 2


Regen radar Meer informatie rain snow radar


Bezoek onze andere website:

Vorige versie
weerstation Maaseik


Bezoek ook eens deze sites:

Weerstation Geleen



Het weer levert geen direct gevaar op.    Er zijn geen waarschuwingen afgegeven.

15 daagse weersverwachting Ballerup (DK)

  • Overzicht
  • Per uur
  • 15 dagen
  • Extra
  • Vergelijk
  • Kaarten
  • Dagkaart
  • Meer »
  • Info
  • Statistieken
  • Directe link
    Temp 6h Neerslag Wind  
 04:56     21:19    Daglengte: 16:23 Vandaag
20:00
14°
 
4
 04:54     21:21    Daglengte: 16:27 Morgen
02:00
 
4
08:00
11°
 
6
14:00
15°
 
7
20:00
14°
 
4
 04:53     21:23    Daglengte: 16:30 Donderdag 19 Mei
02:00
12°
 
3
08:00
15°
 
3
14:00
24°
 
3
20:00
18°
10.0 mm
3
 04:51     21:24    Daglengte: 16:33 Vrijdag 20 Mei
02:00
14°
17.6 mm
3
08:00
13°
 
3
14:00
18°
 
3
Locatie info
Region: Hovedstaden
Latitude: 55.7301°N
Longitude: 12.3610°E
34 masl
Postcode: 2750
Temp/Neerslag /Baro Onweer/Dauwpunt
    Temp Baro 1h Neerslag Dauwpunt Wind UV Bewolking  
 04:56     21:19    Daglengte: 16:23 Vandaag
17:00
17°
1023.8 hPa   2.2°
5
Windvlaag: 6 m/s
12%
18:00
16°
1023.9 hPa   1.9°
5
Windvlaag: 6.6 m/s
19%
19:00
15°
1024.0 hPa   1.9°
5
Windvlaag: 6.3 m/s
20%
20:00
14°
1024.2 hPa   1.7°
4
Windvlaag: 6.6 m/s
43%
21:00
13°
1024.8 hPa   1.9°
4
Windvlaag: 7.5 m/s
50%
22:00
12°
1025.2 hPa   1.7°
4
Windvlaag: 7.6 m/s
36%
23:00
11°
1025.9 hPa   1.9°
5
Windvlaag: 5.2 m/s
44%
 04:54     21:21    Daglengte: 16:27 Morgen
00:00
10°
1026.2 hPa   1.9°
5
Windvlaag: 5.1 m/s
15%
01:00
10°
Voelt als: 7.4°
1026.3 hPa   2.8°
4
Windvlaag: 5 m/s
12%
02:00
Voelt als: 6.9°
1026.4 hPa   3.0°
4
Windvlaag: 4.9 m/s
13%
03:00
Voelt als: 6.5°
1026.3 hPa   3.5°
4
Windvlaag: 5.3 m/s
15%
04:00
Voelt als: 6.4°
1026.4 hPa   4.4°
5
Windvlaag: 5.5 m/s
15%
05:00
Voelt als: 6.1°
1026.2 hPa   5.2°
5
Windvlaag: 6.8 m/s
15%
06:00
Voelt als: 6.6°
1026.4 hPa   5.2°
5
Windvlaag: 6.7 m/s
16%
07:00
10°
1026.6 hPa   4.4°
6
Windvlaag: 6.7 m/s
16%
08:00
11°
1026.7 hPa   5.1°
6
Windvlaag: 8.1 m/s
42%
09:00
12°
1026.6 hPa   5.4°
7
Windvlaag: 9.7 m/s
52%
10:00
13°
1026.5 hPa   4.8°
7
Windvlaag: 10.1 m/s
52%
11:00
14°
1026.2 hPa   4.8°
7
Windvlaag: 10.2 m/s
58%
12:00
14°
1026.0 hPa   5.3°
7
Windvlaag: 10.3 m/s
55%
13:00
15°
1025.7 hPa   6.1°
7
Windvlaag: 10.2 m/s
48%
14:00
15°
1025.5 hPa   6.5°
7
Windvlaag: 10.1 m/s
27%
15:00
16°
1024.8 hPa   6.4°
7
Windvlaag: 10 m/s
59%
16:00
16°
1024.2 hPa   6.8°
6
Windvlaag: 9.8 m/s
52%
17:00
16°
1023.4 hPa   6.9°
6
Windvlaag: 9.1 m/s
46%
18:00
16°
1023.1 hPa   7.6°
5
Windvlaag: 8.4 m/s
27%
19:00
15°
1022.8 hPa   8.2°
4
Windvlaag: 7.5 m/s
54%
20:00
14°
1022.5 hPa
12%
8.5°
4
Windvlaag: 6.5 m/s
13%
21:00
14°
1022.3 hPa   9.4°
3
Windvlaag: 5.3 m/s
18%
22:00
13°
1022.2 hPa   10.2°
3
Windvlaag: 4.8 m/s
54%
23:00
13°
1021.9 hPa   11.6°
3
Windvlaag: 4.6 m/s
65%
 04:53     21:23    Daglengte: 16:30 Donderdag 19 Mei
00:00
13°
1021.6 hPa   11.3°
3
Windvlaag: 4.7 m/s
40%
01:00
13°
1021.3 hPa   11.1°
3
Windvlaag: 4.4 m/s
29%
02:00
12°
1020.8 hPa   11.3°
3
Windvlaag: 4.6 m/s
59%
03:00
13°
1020.6 hPa   11.5°
2
Windvlaag: 4 m/s
16%
04:00
12°
1020.2 hPa   11.5°
2
Windvlaag: 2.9 m/s
53%
05:00
12°
1020.1 hPa   11.6°
2
Windvlaag: 3.2 m/s
30%
06:00
13°
1020.1 hPa   12.0°
3
Windvlaag: 3.6 m/s
58%
07:00
14°
1019.9 hPa
12%
12.1°
2
Windvlaag: 3.8 m/s
58%
08:00
15°
1020.1 hPa
13%
11.7°
3
Windvlaag: 4.2 m/s
21%
09:00
17°
1020.0 hPa
14%
11.9°
3
Windvlaag: 4.6 m/s
53%
10:00
19°
1019.9 hPa
14%
11.9°
3
Windvlaag: 5.6 m/s
76%
11:00
21°
1019.2 hPa
87%
15.0°
3
Windvlaag: 5.5 m/s
55%
12:00
22°
1018.7 hPa
52%
15.9°
2
Windvlaag: 5.9 m/s
75%
13:00
23°
1018.2 hPa
98%
15.5°
2
Windvlaag: 6.7 m/s
74%
14:00
24°
1017.7 hPa
34%
15.4°
3
Windvlaag: 7.6 m/s
75%
15:00
25°
1017.3 hPa
49%
15.6°
4
Windvlaag: 8.3 m/s
96%
16:00
23°
1016.9 hPa 0.7 mm
97%
16.0°
3
Windvlaag: 8.6 m/s
97% warningclass
17:00
22°
1016.6 hPa
95%
16.5°
2
Windvlaag: 7.4 m/s
98%
18:00
19°
1016.3 hPa 4.2 mm
100%
18.4°
2
Windvlaag: 6.1 m/s
99%
19:00
19°
1015.9 hPa 5.1 mm
100%
17.6°
2
Windvlaag: 6.5 m/s
94%
20:00
18°
1015.9 hPa
32%
16.3°
3
Windvlaag: 6.9 m/s
69%
21:00
17°
1015.8 hPa
25%
15.5°
3
Windvlaag: 5.8 m/s
56%
22:00
15°
1015.8 hPa
25%
12.9°
3
Windvlaag: 5.5 m/s
59%
23:00
14°
1016.0 hPa
46%
11.6°
3
Windvlaag: 5.1 m/s
81%
 04:51     21:24    Daglengte: 16:33 Vrijdag 20 Mei
00:00
14°
1016.4 hPa 6.1 mm
100%
12.2°
2
Windvlaag: 5.8 m/s
86%
01:00
14°
1016.4 hPa 5.5 mm
99%
12.2°
2
Windvlaag: 5.1 m/s
96%
02:00
14°
1016.4 hPa 6.0 mm
100%
12.7°
3
Windvlaag: 3 m/s
73%
03:00
14°
1016.4 hPa
49%
12.6°
4
Windvlaag: 0.7 m/s
90%
04:00
13°
1016.5 hPa
40%
11.5°
4
Windvlaag: 0.1 m/s
96%
05:00
13°
1016.6 hPa
74%
11.2°
4
Windvlaag: -0.9 m/s
77%
06:00
12°
1017.2 hPa
23%
10.6°
3
Windvlaag: 6 m/s
57%
07:00
13°
1017.5 hPa
27%
10.5°
2
Windvlaag: 7.4 m/s
58%
08:00
13°
1017.8 hPa
77%
10.3°
3
Windvlaag: 5.8 m/s
83%
09:00
14°
1018.0 hPa
26%
10.0°
3
Windvlaag: 4.8 m/s
90%
10:00
15°
1017.9 hPa
22%
9.9°
3
Windvlaag: 4.3 m/s
90%
11:00
16°
1017.8 hPa
25%
9.6°
3
Windvlaag: 3.6 m/s
89%
12:00
16°
1017.7 hPa
21%
8.9°
3
Windvlaag: 2.2 m/s
92%
13:00
17°
1017.5 hPa
22%
8.8°
3
Windvlaag: 2.7 m/s
59%
14:00
18°
1016.8 hPa
21%
9.1°
3
Windvlaag: 2.7 m/s
34%
15:00
19°
1016.2 hPa 15.8 mm
100%
10.4°
2
Windvlaag: 3.1 m/s
93%
16:00
19°
1015.3 hPa 15.8 mm
100%
10.4°
3
Windvlaag: 3 m/s
88%
Temp/Neerslag /Baro Onweer/Dauwpunt
    Temp Baro Neerslag Dauwpunt Wind Bewolking  
 04:56     21:19    Daglengte: 16:23 Vandaag
17:00
17°
1023.8 hPa   2.2°
5
12%
20:00
14°
1024.2 hPa   1.7°
4
43%
23:00
11°
1025.9 hPa   1.9°
5
44%
 04:54     21:21    Daglengte: 16:27 Morgen
02:00
Voelt als: 6.9°
1026.4 hPa   3.0°
4
13%
05:00
Voelt als: 6.1°
1026.2 hPa   5.2°
5
15%
08:00
11°
1026.7 hPa   5.1°
6
42%
11:00
14°
1026.2 hPa   4.8°
7
58%
14:00
15°
1025.5 hPa   6.5°
7
27%
17:00
16°
1023.4 hPa   6.9°
6
46%
20:00
14°
1022.5 hPa   8.5°
4
13%
23:00
13°
1021.9 hPa   11.6°
3
65%
 04:53     21:23    Daglengte: 16:30 Donderdag 19 Mei
02:00
12°
1020.8 hPa   11.3°
3
59%
05:00
12°
1020.1 hPa   11.6°
2
30%
08:00
15°
1020.1 hPa   11.7°
3
21%
11:00
21°
1019.2 hPa   15.0°
3
55%
14:00
24°
1017.7 hPa   15.4°
3
75%
17:00
22°
1016.6 hPa 0.7 mm 16.5°
2
98% warningclass
20:00
18°
1015.9 hPa 9.3 mm 16.3°
3
69%
23:00
14°
1016.0 hPa   11.6°
3
81%
 04:51     21:24    Daglengte: 16:33 Vrijdag 20 Mei
02:00
14°
1016.4 hPa 17.6 mm 12.7°
3
73%
05:00
13°
1016.6 hPa   11.2°
4
77%
08:00
13°
1017.8 hPa   10.3°
3
83%
11:00
16°
1017.8 hPa   9.6°
3
89%
14:00
18°
1016.8 hPa   9.1°
3
34%
17:00
18°
1015.3 hPa 47.3 mm 9.5°
4
89%
20:00
16°
1013.5 hPa 47.3 mm 6.7°
3
92%
23:00
12°
1013.7 hPa 5.1 mm -8.0°
3
26%
 04:50     21:26    Daglengte: 16:36 Zaterdag 21 Mei
02:00
11°
1012.6 hPa 7.7 mm -8.3°
4
26%
05:00
11°
1010.9 hPa 16.7 mm -8.3°
3
26%
08:00
12°
1011.2 hPa 19.3 mm -8.8°
4
23%
11:00
14°
1013.0 hPa 16.3 mm -10.7°
6
21%
14:00
16°
1013.3 hPa 30.8 mm -10.2°
5
10%
17:00
16°
1014.2 hPa 31.0 mm -9.2°
5
12%
20:00
14°
1015.9 hPa 31.1 mm -8.3°
3
12%
23:00
11°
1016.3 hPa 31.2 mm -10.2°
2
21%
 04:48     21:28    Daglengte: 16:40 Zondag 22 Mei
02:00
10°
1017.1 hPa 31.2 mm -10.3°
3
24%
05:00
Voelt als: 7.7°
1017.1 hPa 31.2 mm -10.5°
3
12%
08:00
12°
1017.1 hPa 31.2 mm -9.5°
3
3%
11:00
15°
1016.9 hPa 31.2 mm -9.6°
2
5%
14:00
17°
1016.1 hPa 31.2 mm -9.5°
2
7%
17:00
17°
1015.1 hPa 31.3 mm -9.8°
1
21%
20:00
15°
1014.7 hPa 31.3 mm -9.4°
1
25%
23:00
12°
1014.1 hPa 31.3 mm -10.9°
0
26%
 04:47     21:29    Daglengte: 16:42 Maandag 23 Mei
02:00
11°
1013.8 hPa 31.3 mm -11.1°
1
26%
05:00
10°
1013.0 hPa 31.3 mm -11.2°
1
26%
08:00
12°
1012.9 hPa 31.3 mm -11.4°
2
26%
11:00
14°
1012.8 hPa 31.3 mm -11.2°
2
25%
14:00
16°
1012.2 hPa 15.9 mm -10.0°
3
24%
17:00
15°
1012.1 hPa 31.7 mm 10.4°
3
1%
20:00
14°
1012.0 hPa 31.8 mm 11.3°
2
1%
23:00
11°
1012.0 hPa 31.8 mm 10.1°
3
1%
 04:45     21:31    Daglengte: 16:46 Dinsdag 24 Mei
02:00
11°
1011.5 hPa 31.8 mm 9.7°
3
1%
05:00
11°
1010.5 hPa 31.9 mm 10.0°
3
1%
08:00
13°
1010.3 hPa 32.4 mm 11.2°
4
1%
11:00
17°
1010.1 hPa 32.8 mm 11.2°
5
1%
14:00
17°
1010.6 hPa 67.4 mm 10.7°
6
0%
20:00
15°
1011.8 hPa 69.3 mm 10.4°
4
1%
 04:44     21:33    Daglengte: 16:49 Woensdag 25 Mei
02:00
10°
Voelt als: 7.9°
1014.5 hPa 69.3 mm 8.3°
4
0%
08:00
13°
1015.9 hPa 69.3 mm 8.7°
5
1%
14:00
18°
1017.1 hPa 69.3 mm 8.5°
4
1%
20:00
16°
1016.6 hPa 69.3 mm 10.6°
2
0%
 04:42     21:34    Daglengte: 16:52 Donderdag 26 Mei
02:00
11°
1016.8 hPa 69.3 mm 7.8°
2
0%
08:00
15°
1015.5 hPa 69.3 mm 9.4°
4
0%
14:00
18°
1016.1 hPa 69.3 mm 10.5°
7
0%
20:00
16°
1016.7 hPa 69.3 mm 10.0°
4
0%
 04:41     21:36    Daglengte: 16:55 Vrijdag 27 Mei
02:00
11°
1019.5 hPa 69.3 mm 8.3°
4
1%
08:00
13°
1020.0 hPa 69.3 mm 10.2°
3
1%
14:00
15°
1015.8 hPa 0.6 mm 9.1°
2
44%
20:00
14°
1016.0 hPa 0.6 mm 9.6°
2
49%
 04:40     21:37    Daglengte: 16:57 Zaterdag 28 Mei
02:00
11°
1017.2 hPa 0.1 mm 8.5°
2
49%
08:00
13°
1017.7 hPa 0.1 mm 9.0°
1
47%
14:00
16°
1018.0 hPa 0.2 mm 9.6°
1
49%
20:00
15°
1017.4 hPa 0.2 mm 10.3°
1
51%
 04:39     21:39    Daglengte: 17:00 Zondag 29 Mei
02:00
12°
1017.2 hPa   9.2°
0
58%
08:00
13°
1016.4 hPa 0.4 mm 9.3°
1
56%
14:00
16°
1015.8 hPa 0.4 mm 10.1°
1
63%
20:00
15°
1015.4 hPa 0.5 mm 10.4°
1
60%
 04:38     21:40    Daglengte: 17:02 Maandag 30 Mei
02:00
12°
1016.1 hPa 0.2 mm 9.2°
1
61%
08:00
13°
1016.2 hPa 0.6 mm 9.5°
1
56%
14:00
16°
1016.2 hPa 0.6 mm 10.3°
2
54%
20:00
15°
1015.5 hPa 0.4 mm 10.5°
2
46%
 04:37     21:41    Daglengte: 17:04 Dinsdag 31 Mei
02:00
12°
1015.8 hPa 0.2 mm 8.8°
2
41%
08:00
13°
1015.5 hPa 0.3 mm 9.0°
3
46%
14:00
15°
1015.8 hPa 0.5 mm 9.5°
3
46%
20:00
14°
1015.3 hPa 0.5 mm 9.5°
3
47%
 04:36     21:43    Daglengte: 17:07 Woensdag 01 Jun
02:00
11°
1015.7 hPa 0.3 mm 8.1°
2
44%
08:00
12°
1015.6 hPa 0.2 mm 8.4°
2
49%
14:00
15°
1015.7 hPa 0.6 mm 8.8°
3
52%
  CAPE Lifted Index Hail Supercell Tornado SRH 3km CL BTM PRES CL TOP PRES Swiss DWD icon SMHI TS
 04:56     21:19    Daglengte: 16:23 Vandaag
17:00 0 J/kg 8.8 K 0 % 0 % 0 % 0 m²/s² 0 0 15.16 2
18:00 0 J/kg 9.3 K 0 % 0 % 0 % 0 m²/s² 0 0 15.66 1
19:00 0 J/kg 9.7 K 0 % 0 % 0 % 0 m²/s² 0 0 15.88 2
20:00 0 J/kg 10.0 K 0 % 0 % 0 % 0 m²/s² 0 0 16.39 3
21:00 0 J/kg 9.5 K 0 % 0 % 0 % 0 m²/s² 0 0 15.71 3
22:00 0 J/kg 9.2 K 0 % 0 % 0 % 0 m²/s² 0 0 15.23 2
23:00 0 J/kg 8.9 K 0 % 0 % 0 % 0 m²/s² 0 0 14.75 3
 04:54     21:21    Daglengte: 16:27 Morgen
00:00 0 J/kg 9.1 K 0 % 0 % 0 % 0 m²/s² 0 0 14.95 1
01:00 0 J/kg 9.8 K 0 % 0 % 0 % 0 m²/s² 0 0 15.65 0
02:00 0 J/kg 10.9 K 0 % 0 % 0 % 0 m²/s² 0 0 16.75 0
03:00 0 J/kg 11.4 K 0 % 0 % 0 % 0 m²/s² 0 0 17.25 0
04:00 0 J/kg 11.9 K 0 % 0 % 0 % 0 m²/s² 0 0 17.93 1
05:00 0 J/kg 12.3 K 0 % 0 % 0 % 0 m²/s² 0 0 18.51 2
06:00 0 J/kg 11.7 K 0 % 0 % 0 % 0 m²/s² 0 0 18.09 1
07:00 0 J/kg 11.7 K 0 % 0 % 0 % 0 m²/s² 0 0 18.3 1
08:00 0 J/kg 8.0 K 0 % 0 % 0 % 0 m²/s² 0 0 14.81 3
09:00 0 J/kg 6.8 K 0 % 0 % 0 % 0 m²/s² 0 0 14.06 3
10:00 0 J/kg 6.6 K 0 % 0 % 0 % 0 m²/s² 0 0 13.2 3
11:00 0 J/kg 5.9 K 0 % 0 % 0 % 0 m²/s² 0 0 11.3 3
12:00 0 J/kg 5.2 K 0 % 0 % 0 % 0 m²/s² 0 0 8.98 3
13:00 0 J/kg 5.1 K 0 % 0 % 0 % 0 m²/s² 0 0 7.77 2
14:00 0 J/kg 4.5 K 0 % 0 % 0 % 0 m²/s² 0 0 6.81 2
15:00 0 J/kg 3.6 K 0 % 0 % 0 % 0 m²/s² 0 0 6.87 3
16:00 0 J/kg 2.9 K 0 % 0 % 0 % 0 m²/s² 0 0 5.15 3
17:00 0 J/kg 3.8 K 0 % 0 % 0 % 0 m²/s² 0 0 6.05 3
18:00 0 J/kg 3.3 K 0 % 0 % 0 % 0 m²/s² 0 0 5.16 2
19:00 0 J/kg 2.6 K 0 % 0 % 0 % 0 m²/s² 0 0 3.44 3
20:00 0 J/kg 1.2 K 0 % 0 % 0 % 0 m²/s² 0 0 1.8 2
21:00 0 J/kg -0.7 K 0 % 0 % 0 % 0 m²/s² 0 0 -0.13 2
22:00 0 J/kg -1.6 K 0 % 0 % 0 % 0 m²/s² 0 0 -0.82 3
23:00 0 J/kg -1.9 K 0 % 0 % 0 % 0 m²/s² 0 0 -0.7 3
 04:53     21:23    Daglengte: 16:30 Donderdag 19 Mei
00:00 0 J/kg -2.4 K 0 % 0 % 0 % 0 m²/s² 0 0 -0.33 3
01:00 0 J/kg -2.5 K 0 % 0 % 0 % 0 m²/s² 0 0 -0.16 3
02:00 0 J/kg -1.8 K 0 % 0 % 0 % 0 m²/s² 0 0 2.16 3
03:00 0 J/kg -2.0 K 0 % 0 % 0 % 0 m²/s² 0 0 2.62 2
04:00 0 J/kg -2.1 K 0 % 0 % 0 % 0 m²/s² 0 0 2.88 3
05:00 0 J/kg -2.5 K 0 % 0 % 0 % 0 m²/s² 0 0 2.36 2
06:00 0 J/kg -2.8 K 0 % 0 % 0 % 0 m²/s² 0 0 2.3 3
07:00 0 J/kg -3.2 K 0 % 0 % 0 % 0 m²/s² 0 0 2.32 3
08:00 0 J/kg -3.3 K 0 % 0 % 0 % 0 m²/s² 0 0 0.96 1
09:00 51 J/kg -3.0 K 0 % 0 % 0 % 0 m²/s² 0 0 0.66 3
10:00 19 J/kg -2.0 K 0 % 0 % 0 % 0 m²/s² 0 0 -0.17 3
11:00 46 J/kg -1.9 K 0 % 0 % 0 % 0 m²/s² 0 0 -0.64 3
12:00 152 J/kg -1.8 K 0 % 0 % 0 % 0 m²/s² 0 0 -0.75 3
13:00 376 J/kg -2.1 K 0 % 0 % 0 % 0 m²/s² 0 0 -0.51 3
14:00 600 J/kg -3.4 K 0 % 0 % 0 % 0 m²/s² 0 0 -1.18 3
15:00 833 J/kg -4.5 K 0 % 0 % 0 % 0 m²/s² 0 0 -1.68 3
16:00 792 J/kg -4.2 K 0 % 0 % 0 % 0 m²/s² 0 0 -2.73 3
17:00 542 J/kg -2.4 K 0 % 0 % 0 % 0 m²/s² 0 0 -2.07 3
18:00 280 J/kg -1.4 K 0 % 0 % 0 % 0 m²/s² 0 0 -1.22 61
19:00 208 J/kg -0.4 K 0 % 0 % 0 % 0 m²/s² 0 0 -0.13 80
20:00 0 J/kg -0.1 K 0 % 0 % 0 % 0 m²/s² 0 0 1.91 3
21:00 2 J/kg 0.8 K 0 % 0 % 0 % 0 m²/s² 0 0 4.22 3
22:00 0 J/kg 1.5 K 0 % 0 % 0 % 0 m²/s² 0 0 6.39 3
23:00 0 J/kg 3.6 K 0 % 0 % 0 % 0 m²/s² 0 0 9.78 3
 04:51     21:24    Daglengte: 16:33 Vrijdag 20 Mei
00:00 0 J/kg 4.1 K 0 % 0 % 0 % 0 m²/s² 0 0 9.32 80
01:00 0 J/kg 4.0 K 0 % 0 % 0 % 0 m²/s² 0 0 8.59 80
02:00 0 J/kg 4.2 K 0 % 0 % 0 % 0 m²/s² 0 0 8.34 80
03:00 0 J/kg 4.4 K 0 % 0 % 0 % 0 m²/s² 0 0 10.07 45
04:00 0 J/kg 5.1 K 0 % 0 % 0 % 0 m²/s² 0 0 13.08 3
05:00 0 J/kg 5.3 K 0 % 0 % 0 % 0 m²/s² 0 0 12.98 3
06:00 0 J/kg 6.4 K 0 % 0 % 0 % 0 m²/s² 0 0 15.34 3
07:00 0 J/kg 7.5 K 0 % 0 % 0 % 0 m²/s² 0 0 17.25 3
08:00 0 J/kg 7.4 K 0 % 0 % 0 % 0 m²/s² 0 0 16.7 3
09:00 0 J/kg 7.3 K 0 % 0 % 0 % 0 m²/s² 0 0 16.21 3
10:00 0 J/kg 7.9 K 0 % 0 % 0 % 0 m²/s² 0 0 16.81 3
11:00 0 J/kg 7.0 K 0 % 0 % 0 % 0 m²/s² 0 0 16.27 3
12:00 0 J/kg 6.3 K 0 % 0 % 0 % 0 m²/s² 0 0 15.57 3
13:00 0 J/kg 6.0 K 0 % 0 % 0 % 0 m²/s² 0 0 14.88 3
14:00 4 J/kg 5.5 K 0 % 0 % 0 % 0 m²/s² 0 0 12.37 3
15:00 8 J/kg 5.1 K 0 % 0 % 0 % 0 m²/s² 0 0 9.78
16:00 5 J/kg 5.4 K 0 % 0 % 0 % 0 m²/s² 0 0 8.16
Temp Baro Wind Neerslag
  EWN Forecast EWN WRFDA DWD ICON FMI HIRLAM MET Norway GFSWXSIM
 04:56     21:19    Daglengte: 16:23 Vandaag
17:00 17.0° 1023.8 hPa 4.7 m/s 0.0 mm 16.1° 1022.3 hPa 4.4 m/s 0.0 mm 17.1° 1023.7 hPa 3.4 m/s -2.0 mm 16.2° 1024.0 hPa 6.5 m/s 0.0 mm 15.4° 1024.1 hPa 4.8 m/s 21.2° 1024.0 hPa 3.0 m/s 0.0 mm
20:00 14.1° 1024.2 hPa 4.0 m/s 0.0 mm 13.5° 1022.8 hPa 4.3 m/s 0.0 mm 13.9° 1023.8 hPa 3.2 m/s 0.0 mm 14.1° 1024.4 hPa 5.2 m/s 0.0 mm 11.9° 1024.9 hPa 4.4 m/s 17.9° 1025.0 hPa 5.0 m/s 0.0 mm
23:00 11.1° 1025.9 hPa 4.7 m/s 0.0 mm 9.7° 1024.5 hPa 3.7 m/s 0.0 mm 9.4° 1025.7 hPa 2.4 m/s 0.0 mm 11.7° 1026.1 hPa 6.6 m/s 0.0 mm 9.1° 1026.4 hPa 4.9 m/s 14.4° 1026.0 hPa 5.0 m/s 0.0 mm
 04:54     21:21    Daglengte: 16:27 Morgen
02:00 9.2° 1026.4 hPa 4.3 m/s 0.0 mm 8.0° 1025.1 hPa 3.4 m/s 0.0 mm 7.5° 1026.5 hPa 2.7 m/s 0.0 mm 9.6° 1026.3 hPa 5.2 m/s 0.0 mm 8.2° 1026.9 hPa 4.7 m/s 12.0° 1027.0 hPa 6.0 m/s 0.0 mm
05:00 8.9° 1026.2 hPa 5.1 m/s 0.0 mm 8.5° 1025.2 hPa 4.3 m/s 0.0 mm 7.0° 1026.2 hPa 3.2 m/s 0.0 mm 9.1° 1026.1 hPa 6.5 m/s 0.0 mm 8.7° 1026.2 hPa 5.5 m/s 9.4° 1026.0 hPa 6.0 m/s 0.0 mm
08:00 11.3° 1026.7 hPa 6.3 m/s 0.0 mm 11.2° 1025.7 hPa 7.3 m/s 0.0 mm 11.4° 1026.8 hPa 4.9 m/s 0.0 mm 11.4° 1026.2 hPa 7.6 m/s 0.0 mm 11.0° 1026.4 hPa 6.6 m/s 11.5° 1026.0 hPa 7.0 m/s 0.0 mm
11:00 13.7° 1026.2 hPa 7.1 m/s 0.0 mm 13.0° 1025.5 hPa 8.0 m/s 0.0 mm 14.1° 1026.4 hPa 5.9 m/s 0.0 mm 13.7° 1025.6 hPa 8.8 m/s 0.0 mm 13.1° 1025.9 hPa 7.6 m/s 16.8° 1027.0 hPa 8.0 m/s 0.0 mm
14:00 15.2° 1025.5 hPa 6.9 m/s 0.0 mm 14.4° 1024.8 hPa 7.6 m/s 0.0 mm 15.8° 1025.7 hPa 5.7 m/s 0.0 mm 14.5° 1024.5 hPa 9.1 m/s 0.0 mm 15.3° 1025.2 hPa 7.1 m/s 19.1° 1025.0 hPa 8.0 m/s 0.0 mm
17:00 15.8° 1023.4 hPa 5.8 m/s 0.0 mm 15.5° 1023.3 hPa 6.3 m/s 0.0 mm 15.7° 1024.2 hPa 5.0 m/s 0.0 mm 15.6° 1022.0 hPa 8.3 m/s 0.0 mm 16.2° 1023.2 hPa 5.6 m/s 20.0° 1024.0 hPa 6.0 m/s 0.0 mm
20:00 14.4° 1022.5 hPa 3.9 m/s 0.0 mm 14.5° 1022.1 hPa 4.6 m/s 0.0 mm 14.1° 1023.1 hPa 3.4 m/s 0.0 mm 14.3° 1020.1 hPa 6.0 m/s 0.0 mm 14.7° 1021.9 hPa 3.4 m/s 18.5° 1023.0 hPa 4.0 m/s 0.0 mm
23:00 13.1° 1021.9 hPa 2.7 m/s 0.0 mm 13.5° 1021.0 hPa 3.6 m/s 0.0 mm 11.9° 1022.4 hPa 2.5 m/s 0.0 mm 13.3° 1020.2 hPa 2.4 m/s 0.0 mm 13.4° 1021.1 hPa 3.1 m/s 13.7° 1021.0 hPa 3.0 m/s 0.0 mm
 04:53     21:23    Daglengte: 16:30 Donderdag 19 Mei
02:00 12.4° 1020.8 hPa 2.5 m/s 0.0 mm 14.4° 1019.5 hPa 3.2 m/s 0.0 mm 12.3° 1021.4 hPa 2.2 m/s 0.0 mm 11.4° 1020.9 hPa 3.0 m/s 0.0 mm 13.5° 1020.4 hPa 2.4 m/s 12.2° 1021.0 hPa 3.0 m/s 0.0 mm
05:00 12.2° 1020.1 hPa 2.5 m/s 0.0 mm 13.2° 1019.1 hPa 2.8 m/s 0.0 mm 12.6° 1020.0 hPa 2.0 m/s 0.0 mm 8.8° 1021.7 hPa 2.5 m/s 0.0 mm 13.5° 1019.5 hPa 1.7 m/s 11.6° 1020.0 hPa 2.0 m/s 0.0 mm
08:00 14.9° 1020.1 hPa 2.8 m/s 0.0 mm 17.8° 1018.5 hPa 1.7 m/s 0.1 mm 17.4° 1020.0 hPa 2.9 m/s 0.0 mm 12.4° 1021.7 hPa 3.0 m/s 0.0 mm 16.7° 1019.7 hPa 1.3 m/s 14.1° 1020.0 hPa 1.0 m/s 0.0 mm
11:00 20.8° 1019.2 hPa 3.1 m/s 0.0 mm 20.1° 1018.2 hPa 1.4 m/s 1.2 mm 21.1° 1020.1 hPa 3.3 m/s 0.0 mm 18.4° 1019.4 hPa 1.0 m/s 16.4° 1020.0 hPa 1.0 m/s 0.3 mm
14:00 24.0° 1017.7 hPa 2.7 m/s 0.0 mm 24.2° 1016.2 hPa 2.7 m/s 2.9 mm 23.1° 1019.2 hPa 0.8 m/s 0.1 mm 20.7° 1018.0 hPa 1.9 m/s 19.0° 1018.0 hPa 1.0 m/s 0.2 mm
17:00 21.7° 1016.6 hPa 2.2 m/s 0.7 mm 21.7° 1014.7 hPa 1.9 m/s 4.2 mm 19.6° 1018.2 hPa 1.5 m/s 0.4 mm 18.3° 1016.5 hPa 1.1 m/s 16.0° 1017.0 hPa 1.0 m/s 2.5 mm
20:00 17.8° 1015.9 hPa 2.9 m/s 9.3 mm 16.4° 1014.5 hPa 4.6 m/s 41.9 mm 17.6° 1017.7 hPa 0.5 m/s 0.8 mm 11.4° 1016.5 hPa 5.8 m/s 13.2° 1017.0 hPa 4.0 m/s 6.9 mm
23:00 14.2° 1016.0 hPa 2.6 m/s 0.0 mm 12.2° 1016.0 hPa 4.6 m/s 47.3 mm 14.0° 1017.6 hPa 1.4 m/s 0.0 mm 10.9° 1017.4 hPa 4.1 m/s 13.0° 1017.0 hPa 5.0 m/s 3.1 mm
 04:51     21:24    Daglengte: 16:33 Vrijdag 20 Mei
02:00 13.7° 1016.4 hPa 3.3 m/s 17.6 mm 11.4° 1016.7 hPa 3.9 m/s 47.3 mm 13.2° 1017.2 hPa 0.6 m/s 2.7 mm 9.9° 1018.0 hPa 3.0 m/s 11.6° 1017.0 hPa 4.0 m/s 0.0 mm
05:00 12.8° 1016.6 hPa 3.9 m/s 0.0 mm 9.6° 1017.3 hPa 3.3 m/s 47.3 mm 13.2° 1016.7 hPa 1.5 m/s 0.0 mm 9.7° 1018.6 hPa 3.2 m/s 9.9° 1018.0 hPa 3.0 m/s 0.0 mm
08:00 13.4° 1017.8 hPa 2.6 m/s 0.0 mm 12.3° 1017.9 hPa 3.2 m/s 47.3 mm 13.7° 1017.7 hPa 2.5 m/s 0.0 mm 12.7° 1019.3 hPa 3.5 m/s 11.3° 1019.0 hPa 3.0 m/s 0.0 mm
11:00 15.8° 1017.8 hPa 2.7 m/s 0.0 mm 16.3° 1018.0 hPa 2.5 m/s 47.3 mm 15.7° 1017.8 hPa 2.8 m/s 0.0 mm 14.8° 1019.5 hPa 2.2 m/s 14.8° 1020.0 hPa 3.0 m/s 0.0 mm
14:00 17.6° 1016.8 hPa 2.5 m/s 0.0 mm 19.0° 1016.9 hPa 1.3 m/s 47.3 mm 17.3° 1016.7 hPa 2.8 m/s 0.0 mm 16.8° 1018.6 hPa 1.0 m/s 17.5° 1019.0 hPa 2.0 m/s 0.0 mm
17:00 18.1° 1015.3 hPa 4.4 m/s 47.3 mm 18.1° 1015.3 hPa 4.4 m/s 47.3 mm 15.9° 1016.6 hPa 3.0 m/s 18.5° 1017.0 hPa 2.0 m/s 0.0 mm
20:00 16.3° 1013.5 hPa 2.8 m/s 47.3 mm 16.3° 1013.5 hPa 2.8 m/s 47.3 mm 13.9° 1014.6 hPa 1.6 m/s 16.6° 1016.0 hPa 2.0 m/s 0.0 mm
23:00 12.2° 1013.7 hPa 3.1 m/s 5.1 mm 11.7° 1013.7 hPa 3.3 m/s 9.6 mm 13.6° 1014.0 hPa 3.0 m/s 0.7 mm
 04:50     21:26    Daglengte: 16:36 Zaterdag 21 Mei
02:00 11.4° 1012.6 hPa 3.8 m/s 7.7 mm 11.2° 1012.5 hPa 3.8 m/s 12.3 mm 12.0° 1013.0 hPa 4.0 m/s 3.1 mm
05:00 11.4° 1010.9 hPa 2.8 m/s 16.7 mm 11.2° 1010.8 hPa 2.7 m/s 23.8 mm 12.3° 1011.0 hPa 3.0 m/s 9.6 mm
08:00 11.7° 1011.2 hPa 4.3 m/s 19.3 mm 11.5° 1011.9 hPa 5.1 m/s 30.7 mm 12.1° 1011.0 hPa 4.0 m/s 7.9 mm
11:00 13.8° 1013.0 hPa 5.8 m/s 16.3 mm 14.3° 1013.0 hPa 5.8 m/s 30.8 mm 13.6° 1013.0 hPa 6.0 m/s 1.8 mm
14:00 16.0° 1013.3 hPa 5.1 m/s 30.8 mm 16.2° 1014.1 hPa 5.4 m/s 30.8 mm 16.0° 1013.0 hPa 5.0 m/s 0.0 mm
17:00 16.1° 1014.2 hPa 5.1 m/s 31.0 mm 15.5° 1014.9 hPa 5.5 m/s 31.0 mm 17.7° 1014.0 hPa 5.0 m/s 0.0 mm
20:00 14.3° 1015.9 hPa 3.0 m/s 31.1 mm 13.5° 1015.9 hPa 3.0 m/s 31.1 mm 16.6° 1016.0 hPa 3.0 m/s 0.0 mm
23:00 10.6° 1016.3 hPa 2.3 m/s 31.2 mm 10.0° 1017.3 hPa 2.0 m/s 31.2 mm 12.4° 1016.0 hPa 3.0 m/s 0.0 mm
 04:48     21:28    Daglengte: 16:40 Zondag 22 Mei
02:00 10.0° 1017.1 hPa 2.8 m/s 31.2 mm 9.6° 1017.6 hPa 2.8 m/s 31.2 mm 11.2° 1017.0 hPa 3.0 m/s 0.0 mm
05:00 9.1° 1017.1 hPa 2.6 m/s 31.2 mm 8.7° 1017.4 hPa 2.4 m/s 31.2 mm 10.3° 1017.0 hPa 3.0 m/s 0.0 mm
08:00 12.3° 1017.1 hPa 2.7 m/s 31.2 mm 12.0° 1017.3 hPa 2.6 m/s 31.2 mm 13.3° 1017.0 hPa 3.0 m/s 0.0 mm
11:00 14.7° 1016.9 hPa 2.1 m/s 31.2 mm 14.0° 1016.9 hPa 2.4 m/s 31.2 mm 16.9° 1017.0 hPa 2.0 m/s 0.0 mm
14:00 17.0° 1016.1 hPa 2.2 m/s 31.2 mm 16.3° 1016.4 hPa 2.9 m/s 31.2 mm 19.0° 1016.0 hPa 2.0 m/s 0.0 mm
17:00 16.9° 1015.1 hPa 1.3 m/s 31.3 mm 15.9° 1015.3 hPa 2.0 m/s 31.3 mm 19.8° 1015.0 hPa 1.0 m/s 0.0 mm
20:00 14.8° 1014.7 hPa 1.0 m/s 31.3 mm 14.0° 1014.6 hPa 1.0 m/s 31.3 mm 17.0° 1015.0 hPa 1.0 m/s 0.0 mm
23:00 11.5° 1014.1 hPa 0.1 m/s 31.3 mm 11.0° 1014.5 hPa 0.5 m/s 31.3 mm 13.1° 1014.0 hPa 0.0 m/s 0.0 mm
 04:47     21:29    Daglengte: 16:42 Maandag 23 Mei
02:00 11.0° 1013.8 hPa 0.9 m/s 31.3 mm 11.0° 1013.8 hPa 0.8 m/s 31.3 mm 11.1° 1014.0 hPa 1.0 m/s 0.0 mm
05:00 10.3° 1013.0 hPa 1.2 m/s 31.3 mm 10.8° 1013.2 hPa 1.9 m/s 31.3 mm 10.1° 1013.0 hPa 1.0 m/s 0.0 mm
08:00 11.5° 1012.9 hPa 1.6 m/s 31.3 mm 12.8° 1012.9 hPa 1.4 m/s 31.3 mm 11.1° 1013.0 hPa 2.0 m/s 0.0 mm
11:00 13.9° 1012.8 hPa 2.0 m/s 31.3 mm 15.1° 1012.7 hPa 2.1 m/s 31.3 mm 13.5° 1013.0 hPa 2.0 m/s 0.0 mm
14:00 16.1° 1012.2 hPa 3.1 m/s 15.9 mm 16.1° 1012.6 hPa 3.3 m/s 31.6 mm 16.1° 1012.0 hPa 3.0 m/s 0.2 mm
17:00 15.1° 1012.1 hPa 3.0 m/s 31.7 mm 15.1° 1012.1 hPa 3.0 m/s 31.7 mm
20:00 13.8° 1012.0 hPa 2.4 m/s 31.8 mm 13.8° 1012.0 hPa 2.4 m/s 31.8 mm
23:00 10.9° 1012.0 hPa 2.9 m/s 31.8 mm 10.9° 1012.0 hPa 2.9 m/s 31.8 mm
 04:45     21:31    Daglengte: 16:46 Dinsdag 24 Mei
02:00 10.5° 1011.5 hPa 2.7 m/s 31.8 mm 10.5° 1011.5 hPa 2.7 m/s 31.8 mm
05:00 11.0° 1010.5 hPa 2.6 m/s 31.9 mm 11.0° 1010.5 hPa 2.6 m/s 31.9 mm
08:00 12.8° 1010.3 hPa 4.2 m/s 32.4 mm 12.8° 1010.3 hPa 4.2 m/s 32.4 mm
11:00 16.8° 1010.1 hPa 4.7 m/s 32.8 mm 16.8° 1010.1 hPa 4.7 m/s 32.8 mm
14:00 17.5° 1010.6 hPa 6.4 m/s 34.6 mm 17.5° 1010.6 hPa 6.4 m/s 34.6 mm
20:00 15.1° 1011.8 hPa 4.4 m/s 34.7 mm 15.1° 1011.8 hPa 4.4 m/s 34.7 mm
 04:44     21:33    Daglengte: 16:49 Woensdag 25 Mei
02:00 9.9° 1014.5 hPa 3.8 m/s 34.7 mm 9.9° 1014.5 hPa 3.8 m/s 34.7 mm
08:00 13.0° 1015.9 hPa 4.7 m/s 34.7 mm 13.0° 1015.9 hPa 4.7 m/s 34.7 mm
14:00 17.6° 1017.1 hPa 4.1 m/s 34.7 mm 17.6° 1017.1 hPa 4.1 m/s 34.7 mm
20:00 15.6° 1016.6 hPa 1.8 m/s 34.7 mm 15.6° 1016.6 hPa 1.8 m/s 34.7 mm
 04:42     21:34    Daglengte: 16:52 Donderdag 26 Mei
02:00 10.8° 1016.8 hPa 1.9 m/s 34.7 mm 10.8° 1016.8 hPa 1.9 m/s 34.7 mm
08:00 14.6° 1015.5 hPa 3.9 m/s 34.7 mm 14.6° 1015.5 hPa 3.9 m/s 34.7 mm
14:00 18.3° 1016.1 hPa 6.6 m/s 34.7 mm 18.3° 1016.1 hPa 6.6 m/s 34.7 mm
20:00 15.6° 1016.7 hPa 4.4 m/s 34.7 mm 15.6° 1016.7 hPa 4.4 m/s 34.7 mm
 04:41     21:36    Daglengte: 16:55 Vrijdag 27 Mei
02:00 10.7° 1019.5 hPa 3.6 m/s 34.7 mm 10.7° 1019.5 hPa 3.6 m/s 34.7 mm
08:00 12.6° 1020.0 hPa 2.7 m/s 34.7 mm 12.6° 1020.0 hPa 2.7 m/s 34.7 mm
14:00 15.1° 1015.8 hPa 2.4 m/s 0.6 mm
20:00 13.9° 1016.0 hPa 2.4 m/s 0.6 mm
 04:40     21:37    Daglengte: 16:57 Zaterdag 28 Mei
02:00 11.2° 1017.2 hPa 1.5 m/s 0.1 mm
08:00 12.7° 1017.7 hPa 0.6 m/s 0.1 mm
14:00 15.8° 1018.0 hPa 0.7 m/s 0.2 mm
20:00 14.7° 1017.4 hPa 0.7 m/s 0.2 mm
 04:39     21:39    Daglengte: 17:00 Zondag 29 Mei
02:00 12.1° 1017.2 hPa 0.1 m/s 0.0 mm
08:00 13.0° 1016.4 hPa 0.8 m/s 0.4 mm
14:00 15.9° 1015.8 hPa 0.8 m/s 0.4 mm
20:00 14.7° 1015.4 hPa 1.1 m/s 0.5 mm
 04:38     21:40    Daglengte: 17:02 Maandag 30 Mei
02:00 12.0° 1016.1 hPa 1.2 m/s 0.2 mm
08:00 12.9° 1016.2 hPa 1.2 m/s 0.6 mm
14:00 15.9° 1016.2 hPa 1.9 m/s 0.6 mm
20:00 14.8° 1015.5 hPa 1.8 m/s 0.4 mm
 04:37     21:41    Daglengte: 17:04 Dinsdag 31 Mei
02:00 11.8° 1015.8 hPa 1.8 m/s 0.2 mm
08:00 12.7° 1015.5 hPa 2.6 m/s 0.3 mm
14:00 15.5° 1015.8 hPa 2.9 m/s 0.5 mm
20:00 14.2° 1015.3 hPa 2.9 m/s 0.5 mm
 04:36     21:43    Daglengte: 17:07 Woensdag 01 Jun
02:00 11.3° 1015.7 hPa 2.1 m/s 0.3 mm
08:00 12.5° 1015.6 hPa 1.7 m/s 0.2 mm
14:00 15.2° 1015.7 hPa 2.8 m/s 0.6 mm
FMI Hirlam - 7.5 km EWN WRFDA - 12 km DWD ICON - 7 km GFS - 25 km Basiskaart






























































Updatetijd (Europe/Brussels) Resolutie Lengte Stap
FMI Hirlam 14:00, 20:00, 02:00, 08:00 7.5 km 49h 1h
EWN WRFDA 16:15, 22:15, 04:15, 10:15 12 km 73h 1h
DWD ICON 11:45, 17:45, 23:45, 05:45 7 km 75h 1h
GFS 14:15, 20:15, 02:15, 08:15 25 km 237h 3h
30+ mm
25-30 mm
20-25 mm
15-20 mm
10-15 mm
6-10 mm
4-6 mm
2-4 mm
1-2 mm
0.5-1 mm
0.2-0.5 mm
0.1-0.2 mm
30+ mm
25-30 mm
20-25 mm
15-20 mm
10-15 mm
6-10 mm
4-6 mm
2-4 mm
1-2 mm
0.5-1 mm
0.2-0.5 mm
0.1-0.2 mm
Sneeuwval
Natte sneeuw
Hagel
Vorst